When you browse on this site, cookies collect data to enhance your experience and personalize the content and advertising you see.
Visit our Privacy Policy to learn more. By continuing to use the site, you agree to this use of cookies and data.
  • In Austria
  • List of Countries
  • For 7 days
  • Water Temperature
  • Weather Map
  • News
  • Weather Widgets
  • user-avatar
    Login

    Hourly Weather Stuttgart

    Today, 29 May, Friday

    Time Temperature Precipitation Wind Pressure Humidity
    00:00 +9°C° 0 mm 2 mps 744 mmHg 77%
    01:00 +9°C° 0 mm 2 mps 744 mmHg 81%
    02:00 +8°C° 0 mm 2 mps 744 mmHg 82%
    03:00 +8°C° 0 mm 2 mps 744 mmHg 83%
    04:00 +8°C° 0 mm 1 mps 743 mmHg 83%
    05:00 +9°C° 0 mm 2 mps 743 mmHg 78%
    06:00 +10°C° 0 mm 2 mps 743 mmHg 73%
    07:00 +12°C° 0 mm 2 mps 743 mmHg 68%
    08:00 +13°C° 0 mm 3 mps 743 mmHg 63%
    09:00 +15°C° 0 mm 4 mps 743 mmHg 58%
    10:00 +17°C° 0 mm 4 mps 742 mmHg 53%
    11:00 +18°C° 0 mm 4 mps 742 mmHg 52%
    12:00 +19°C° 0 mm 4 mps 742 mmHg 50%
    13:00 +19°C° 0 mm 5 mps 741 mmHg 49%
    14:00 +19°C° 0 mm 5 mps 741 mmHg 49%
    15:00 +19°C° 0 mm 5 mps 741 mmHg 49%
    16:00 +20°C° 0 mm 5 mps 740 mmHg 49%
    17:00 +19°C° 0 mm 4 mps 740 mmHg 55%
    18:00 +18°C° 0 mm 4 mps 740 mmHg 61%
    19:00 +17°C° 0 mm 3 mps 740 mmHg 67%
    20:00 +14°C° 0 mm 3 mps 740 mmHg 69%
    21:00 +13°C° 0 mm 3 mps 740 mmHg 72%
    22:00 +11°C° 0 mm 3 mps 740 mmHg 74%
    23:00 +11°C° 0 mm 3 mps 740 mmHg 70%

    Tomorrow, 30 May, Saturday

    Time Temperature Precipitation Wind Pressure Humidity
    00:00 +10°C° 0 mm 3 mps 740 mmHg 66%
    01:00 +9°C° 0 mm 3 mps 740 mmHg 62%
    02:00 +9°C° 0 mm 3 mps 740 mmHg 65%
    03:00 +8°C° 0 mm 2 mps 740 mmHg 68%
    04:00 +8°C° 0 mm 2 mps 740 mmHg 71%
    05:00 +9°C° 0 mm 2 mps 740 mmHg 69%
    06:00 +10°C° 0 mm 3 mps 740 mmHg 67%
    07:00 +11°C° 0 mm 3 mps 740 mmHg 66%
    08:00 +13°C° 0 mm 3 mps 740 mmHg 61%
    09:00 +14°C° 0 mm 4 mps 740 mmHg 57%
    10:00 +17°C° 0 mm 4 mps 740 mmHg 52%
    11:00 +17°C° 0 mm 4 mps 740 mmHg 50%
    12:00 +17°C° 0 mm 5 mps 739 mmHg 49%
    13:00 +19°C° 0 mm 5 mps 739 mmHg 48%
    14:00 +17°C° 0 mm 5 mps 739 mmHg 49%
    15:00 +17°C° 0 mm 5 mps 739 mmHg 51%
    16:00 +17°C° 0 mm 5 mps 739 mmHg 53%
    17:00 +17°C° 0 mm 4 mps 739 mmHg 57%
    18:00 +15°C° 0 mm 4 mps 739 mmHg 62%
    19:00 +14°C° 0 mm 4 mps 739 mmHg 67%
    20:00 +13°C° 0 mm 3 mps 739 mmHg 70%
    21:00 +11°C° 0 mm 3 mps 739 mmHg 74%
    22:00 +10°C° 0 mm 2 mps 739 mmHg 77%
    23:00 +9°C° 0 mm 2 mps 739 mmHg 78%

    Day after tomorrow, 31 May, Sunday

    Time Temperature Precipitation Wind Pressure Humidity
    00:00 +9°C° 0 mm 2 mps 739 mmHg 79%
    01:00 +8°C° 0 mm 2 mps 739 mmHg 80%
    02:00 +8°C° 0 mm 2 mps 739 mmHg 83%
    03:00 +8°C° 0 mm 1 mps 739 mmHg 86%
    04:00 +7°C° 0 mm 1 mps 739 mmHg 88%
    05:00 +9°C° 0 mm 1 mps 739 mmHg 83%
    06:00 +9°C° 0 mm 2 mps 739 mmHg 78%
    07:00 +10°C° 0 mm 2 mps 739 mmHg 73%
    08:00 +12°C° 0 mm 3 mps 739 mmHg 67%
    09:00 +13°C° 0 mm 3 mps 739 mmHg 62%
    10:00 +15°C° 0 mm 4 mps 739 mmHg 56%
    11:00 +17°C° 0 mm 4 mps 739 mmHg 55%
    12:00 +17°C° 0 mm 4 mps 739 mmHg 54%
    13:00 +18°C° 0 mm 4 mps 738 mmHg 53%
    14:00 +18°C° 0 mm 4 mps 738 mmHg 54%
    15:00 +18°C° 0 mm 4 mps 738 mmHg 55%
    16:00 +18°C° 0 mm 4 mps 738 mmHg 55%
    17:00 +18°C° 0 mm 4 mps 738 mmHg 59%
    18:00 +17°C° 0 mm 4 mps 739 mmHg 63%
    19:00 +16°C° 0 mm 3 mps 739 mmHg 67%
    20:00 +14°C° 0 mm 3 mps 739 mmHg 70%
    21:00 +12°C° 0 mm 3 mps 739 mmHg 73%
    22:00 +11°C° 0 mm 3 mps 739 mmHg 77%
    23:00 +10°C° 0 mm 3 mps 739 mmHg 78%

    1 June, Monday

    Time Temperature Precipitation Wind Pressure Humidity
    00:00 +10°C° 0 mm 2 mps 739 mmHg 80%
    01:00 +9°C° 0 mm 2 mps 739 mmHg 81%
    02:00 +9°C° 0 mm 2 mps 739 mmHg 84%
    03:00 +9°C° 0 mm 1 mps 738 mmHg 86%
    04:00 +9°C° 0 mm 1 mps 738 mmHg 88%
    05:00 +10°C° 0 mm 1 mps 738 mmHg 84%
    06:00 +12°C° 0 mm 2 mps 738 mmHg 81%
    07:00 +13°C° 0 mm 2 mps 739 mmHg 77%
    08:00 +15°C° 0 mm 2 mps 739 mmHg 73%
    09:00 +17°C° 0 mm 3 mps 739 mmHg 68%
    10:00 +19°C° 0 mm 3 mps 739 mmHg 63%
    11:00 +20°C° 0 mm 4 mps 738 mmHg 60%
    12:00 +21°C° 0 mm 4 mps 738 mmHg 57%
    13:00 +22°C° 0 mm 5 mps 738 mmHg 54%
    14:00 +22°C° 0 mm 5 mps 738 mmHg 54%
    15:00 +22°C° 0 mm 4 mps 738 mmHg 55%
    16:00 +22°C° 0 mm 4 mps 738 mmHg 56%
    17:00 +22°C° 0 mm 4 mps 738 mmHg 60%
    18:00 +21°C° 0 mm 3 mps 738 mmHg 65%
    19:00 +20°C° 0 mm 3 mps 738 mmHg 70%
    20:00 +18°C° 0 mm 2 mps 738 mmHg 74%
    21:00 +17°C° 0 mm 2 mps 738 mmHg 78%
    22:00 +15°C° 0 mm 2 mps 738 mmHg 82%
    23:00 +15°C° 0 mm 2 mps 738 mmHg 82%

    2 June, Tuesday

    Time Temperature Precipitation Wind Pressure Humidity
    00:00 +14°C° 0 mm 2 mps 738 mmHg 82%
    01:00 +14°C° 0 mm 2 mps 738 mmHg 82%
    02:00 +13°C° 0 mm 2 mps 738 mmHg 84%
    03:00 +13°C° 0 mm 2 mps 738 mmHg 85%
    04:00 +12°C° 0 mm 2 mps 738 mmHg 87%
    05:00 +13°C° 0 mm 2 mps 738 mmHg 83%
    06:00 +14°C° 0 mm 2 mps 738 mmHg 80%
    07:00 +15°C° 0 mm 2 mps 738 mmHg 77%
    08:00 +17°C° 0 mm 3 mps 738 mmHg 71%
    09:00 +18°C° 0 mm 3 mps 738 mmHg 65%
    10:00 +20°C° 0 mm 4 mps 738 mmHg 59%
    11:00 +21°C° 0 mm 4 mps 737 mmHg 57%
    12:00 +22°C° 0 mm 4 mps 737 mmHg 55%
    13:00 +23°C° 0 mm 4 mps 736 mmHg 52%
    14:00 +23°C° 0 mm 4 mps 736 mmHg 53%
    15:00 +23°C° 0 mm 4 mps 736 mmHg 53%
    16:00 +23°C° 0 mm 4 mps 735 mmHg 54%
    17:00 +22°C° 0 mm 3 mps 735 mmHg 59%
    18:00 +21°C° 0 mm 3 mps 735 mmHg 65%
    19:00 +20°C° 0 mm 2 mps 734 mmHg 70%
    20:00 +18°C° 0 mm 2 mps 734 mmHg 74%
    21:00 +17°C° 0 mm 2 mps 734 mmHg 77%
    22:00 +15°C° 0 mm 2 mps 734 mmHg 81%
    23:00 +15°C° 0 mm 2 mps 734 mmHg 81%

    3 June, Wednesday

    Time Temperature Precipitation Wind Pressure Humidity
    00:00 +14°C° 0 mm 2 mps 734 mmHg 81%
    01:00 +14°C° 0 mm 2 mps 733 mmHg 81%
    02:00 +13°C° 0 mm 2 mps 733 mmHg 80%
    03:00 +13°C° 0 mm 2 mps 733 mmHg 80%
    04:00 +12°C° 0 mm 2 mps 732 mmHg 80%
    05:00 +13°C° 0 mm 2 mps 732 mmHg 77%
    06:00 +14°C° 0 mm 2 mps 732 mmHg 74%
    07:00 +15°C° 0 mm 2 mps 732 mmHg 71%
    08:00 +17°C° 0 mm 2 mps 732 mmHg 66%
    09:00 +19°C° 0 mm 2 mps 731 mmHg 61%
    10:00 +22°C° 0 mm 1 mps 731 mmHg 56%
    11:00 +23°C° 0.1 mm 1 mps 731 mmHg 54%
    12:00 +24°C° 0.1 mm 1 mps 731 mmHg 52%
    13:00 +26°C° 0.1 mm 1 mps 730 mmHg 50%
    14:00 +26°C° 0.2 mm 1 mps 730 mmHg 50%
    15:00 +26°C° 0.2 mm 1 mps 729 mmHg 51%
    16:00 +26°C° 0.2 mm 1 mps 729 mmHg 51%
    17:00 +24°C° 0.4 mm 1 mps 729 mmHg 60%
    18:00 +23°C° 0.4 mm 2 mps 729 mmHg 68%
    19:00 +20°C° 0.4 mm 2 mps 728 mmHg 77%
    20:00 +19°C° 0.3 mm 2 mps 728 mmHg 79%
    21:00 +18°C° 0.3 mm 2 mps 729 mmHg 81%
    22:00 +18°C° 0.3 mm 2 mps 729 mmHg 83%
    23:00 +17°C° 0.3 mm 2 mps 729 mmHg 85%
    Show more